GSAT-17

Last updated on Nov. 15, 2019, 4:20 a.m. UTC

1 42815U 17040B   19318.07180512 -.00000244  00000-0  00000+0 0  9998
2 42815   0.0309 269.3952 0006838 334.1038 288.7673  1.00273334  8739
UTC
Height (km)
Latitude
Longitude
Inclination
Orbital Period
UTC large
Height (km)
Speed (km/s)
/
Latitude / Longitude
Inclination (degrees)
Orbital Period (minutes)
Azimuth
Elevation
Range (km)
Doppler Factor
iOS Compass Heading
iOS Angle

Next 30 passes for location: Hong Kong

Rise time Rise Azimuth (degrees) Set time Set Azimuth (degrees) Duration Max altitude (degrees)

No matching passes for this satellites